Location: Newark
(43.0000°N, 1.6781°W)
Time: 09:03:26
(UTC+00:00)

Vanguard 1 - Pass Details

Date: 28 April 2021
Orbit: 649 x 3834 km, 34.2° (Epoch: 04 May)

Event Time Altitude Azimuth Distance (km) Brightness Sun altitude
Rises 19:26:48 0° 279° (W) 7,133 16.3 -4.6°
Reaches altitude 10° 19:32:55 10° 267° (W) 6,490 15.4 -5.6°
Maximum altitude 19:47:29 23° 225° (SW) 5,873 14.2 -8.0°
Drops below altitude 10° 20:02:40 10° 183° (S) 6,659 14.0 -10.4°
Sets 20:09:18 0° 170° (S) 7,340 14.1 -11.4°
